[[{"header":{"parameterUnit":"m.s-1","parameterCategory":2,"la1":30.2991,"la2":30.254,"lo1":-89.0895,"lo2":-89.0444,"dy":0.0017,"dx":0.0017,"nx":28,"ny":28,"refTime":"2025-03-21T09:00:00:Z","depth":"0","parameterNumber":2,"parameterNumberName":"U-component_of_CURRENTS"},"data":[0,0,0,0,0,0,0,0,0,0,0,0,0,0,0,0,0,0,0,0,0,0,0,0,0,0,0,0,0,0,0,0,0,0,0,0,0,0,0,0,0,0,0,0,0,0,0,0,0,0,0,0,0,0,0,0,0,0,0.2564,0.2564,0,0.2567,0.2567,0.2566,0.2563,0.2563,0.2563,0.2563,0.2571,0.2571,0.2571,0,0,0,0,0,0,0,0,0,0,0,0,0,0.2571,0.2571,0.2564,0.2564,0.2564,0.2567,0.2567,0.2566,0.2563,0.2563,0.2563,0.2563,0.2571,0.2571,0.2571,0,0,0,0,0,0,0,0,0,0,0,0,0,0.2568,0.2571,0.2564,0.2565,0.2565,0.2567,0.2567,0.2566,0.2563,0.2563,0.2563,0.2563,0.2571,0.2571,0.2572,0.257,0,0,0.2572,0.2572,0,0,0,0,0,0,0,0,0.2568,0.2567,0.2564,0.2565,0.2565,0.2567,0.2572,0.2569,0.2563,0.2561,0.2563,0.2563,0.2572,0.2572,0.2568,0.257,0.257,0.2572,0.2572,0.2572,0.2572,0,0,0,0,0,0,0,0.2568,0.2567,0.2562,0.2565,0.2565,0.2571,0.257,0.2571,0.2564,0.2561,0.2561,0.2566,0.2572,0.2568,0.2569,0.257,0.2572,0.2572,0.2572,0.2572,0.2594,0.2594,0,0,0,0,0,0,0.2572,0.2567,0.2562,0.2563,0.257,0.2571,0.257,0.2564,0.2563,0.2564,0.2566,0.2566,0.2568,0.2568,0.2569,0.2581,0.2572,0.2572,0.2573,0.2593,0.2594,0.2595,0,0,0,0,0,0,0.2572,0.2571,0.2562,0.2568,0.2568,0.257,0.2564,0.2564,0.2559,0.2567,0.2568,0.2561,0.2568,0.2569,0.2574,0.2581,0.2573,0.2573,0.2593,0.2594,0.2594,0.2596,0,0,0,0,0,0,0.2572,0.2571,0.2567,0.2568,0.2567,0.2551,0.2564,0.2564,0.2563,0.2563,0.2563,0.2564,0.2568,0.2574,0.2574,0.2581,0.2573,0.2592,0.2593,0.2594,0.2595,0.2597,0.2598,0,0,0,0,0,0.2572,0.2569,0.2566,0.2566,0.2562,0.255,0.255,0.2552,0.2562,0.2549,0.2564,0.2564,0.258,0.2574,0.2575,0.2582,0.2592,0.2593,0.2594,0.2595,0.2597,0.2598,0,0,0,0,0,0,0.2565,0.2569,0.2566,0.2562,0.255,0.255,0.2551,0.255,0.255,0.2561,0.2566,0.2567,0.2576,0.2578,0.2572,0.2592,0.2588,0.2589,0.2588,0.259,0.2591,0.2605,0.2573,0,0,0,0,0,0.2563,0.2564,0.2557,0.2552,0.2551,0.2549,0.2548,0.2547,0.2551,0.2551,0.2548,0.2561,0.2581,0.2584,0.2591,0.2597,0.2642,0.2604,0.2605,0.2606,0.2619,0.2697,0.2707,0.2598,0.2598,0.2598,0,0,0.2557,0.2563,0.2561,0.2552,0.2551,0.2546,0.2548,0.2546,0.2546,0.2554,0.255,0.2561,0.2583,0.2594,0.2599,0.2596,0.2662,0.2607,0.2608,0.2621,0.2699,0.271,0.272,0.2599,0.2598,0.2598,0,0,0.2553,0.2553,0.2552,0.2548,0.2549,0.2546,0.2544,0.2535,0.2535,0.2532,0.2552,0.2569,0.2569,0.2596,0.2613,0.2625,0.2665,0.2623,0.264,0.2715,0.2725,0.2735,0.2812,0.2828,0.2624,0.2624,0.2624,0,0.2545,0.2544,0.2547,0.2548,0.2553,0.2546,0.2544,0.2542,0.2533,0.2551,0.2529,0.2577,0.2577,0.2635,0.2633,0.2629,0.2682,0.2631,0.2719,0.2729,0.2739,0.2815,0.2833,0.2624,0.2624,0.2624,0.2624,0,0.2539,0.254,0.2542,0.2543,0.2545,0.2541,0.2544,0.2543,0.2542,0.2551,0.2586,0.2591,0.2632,0.2625,0.2628,0.27,0.272,0.2712,0.2717,0.275,0.2828,0.2847,0.2624,0.2624,0.2624,0.2624,0,0,0.2498,0.2531,0.2527,0.2536,0.2545,0.2542,0.2561,0.2576,0.2613,0.2595,0.2649,0.2655,0.2673,0.2694,0.2705,0.275,0.2847,0.2756,0.276,0.2836,0.3031,0.2995,0.3013,0.2862,0.2865,0.2867,0.3061,0,0.2482,0.2497,0.2517,0.252,0.2525,0.2548,0.2571,0.2597,0.2619,0.2665,0.2694,0.2741,0.2699,0.2732,0.277,0.2842,0.2896,0.2796,0.2984,0.299,0.2958,0.3033,0.2888,0.3044,0.3079,0.3082,0.3085,0,0.2453,0.2474,0.2487,0.2532,0.2537,0.2542,0.2601,0.2625,0.2705,0.2734,0.2793,0.2826,0.2904,0.2853,0.2995,0.294,0.2985,0.3021,0.303,0.3011,0.2989,0.3016,0.3077,0.3015,0.3114,0.3111,0.3109,0,0.2417,0.2444,0.246,0.2469,0.252,0.254,0.257,0.2645,0.2692,0.2797,0.2857,0.2943,0.301,0.3079,0.3136,0.3091,0.3293,0.3247,0.326,0.3259,0.3179,0.3165,0.3205,0.3349,0.3349,0.3348,0.3348,0,0.2389,0.2395,0.2444,0.245,0.2482,0.2529,0.2583,0.2637,0.274,0.2826,0.2897,0.2986,0.307,0.3181,0.3211,0.3309,0.3366,0.3293,0.3315,0.3174,0.3158,0.3134,0.3105,0.3355,0.3354,0.3352,0.3351,0,0.2348,0.2376,0.2397,0.2451,0.2464,0.2493,0.2576,0.2635,0.2736,0.286,0.2906,0.3059,0.3215,0.3295,0.3437,0.3417,0.3419,0.3515,0.3343,0.3339,0.3254,0.323,0.3198,0.3113,0.3574,0.3574,0.3575,0,0.2329,0.2338,0.2388,0.2412,0.2432,0.2479,0.2527,0.2618,0.2697,0.2901,0.2975,0.316,0.3276,0.3475,0.349,0.3576,0.3466,0.348,0.3344,0.3258,0.325,0.3107,0.3026,0.3253,0.325,0.3248,0.3247,0,0.2309,0.2328,0.2361,0.2409,0.2446,0.2488,0.2564,0.2609,0.2754,0.2854,0.3026,0.3135,0.3332,0.336,0.3464,0.348,0.3313,0.3442,0.3403,0.305,0.2851,0.2775,0.3126,0.323,0.3232,0.3233,0.3234,0.3234,0.2299,0.2324,0.2378,0.2418,0.246,0.2504,0.2509,0.2602,0.2692,0.2817,0.2984,0.3075,0.3203,0.3322,0.3327,0.3244,0.3221,0.3142,0.3143,0.3023,0.2855,0.317,0.3256,0.3258,0.3259,0.3261,0.3262,0,0.2293,0.2337,0.2387,0.2431,0.2458,0.2488,0.2544,0.253,0.2582,0.2706,0.2814,0.2911,0.296,0.3031,0.3041,0.2956,0.2789,0.2892,0.2655,0.2608,0.2949,0.2845,0.2784,0.2784,0.2784,0.2784,0.2784,0.2784,0.2299,0.2348,0.238,0.242,0.244,0.2415,0.2417,0.2393,0.2427,0.2436,0.2457,0.2561,0.2776,0.2899,0.284,0.2764,0.2572,0.245,0.2477,0.2721,0.2743,0.2763,0.2658,0.2559,0.2559,0.1986,0.1982,0.1979]},{"header":{"parameterUnit":"m.s-1","parameterCategory":2,"la1":30.2991,"la2":30.254,"lo1":-89.0895,"lo2":-89.0444,"dy":0.0017,"dx":0.0017,"nx":28,"ny":28,"refTime":"2025-03-21T09:00:00:Z","depth":"0","parameterNumber":3,"parameterNumberName":"V-component_of_CURRENTS"},"data":[0,0,0,0,0,0,0,0,0,0,0,0,0,0,0,0,0,0,0,0,0,0,0,0,0,0,0,0,0,0,0,0,0,0,0,0,0,0,0,0,0,0,0,0,0,0,0,0,0,0,0,0,0,0,0,0,0,0,0.0189,0.0189,0,0.0163,0.0163,0.0162,0.0119,0.0119,0.0118,0.0118,0.004,0.0038,0.0036,0,0,0,0,0,0,0,0,0,0,0,0,0,0.019,0.019,0.0189,0.0189,0.0189,0.0164,0.0163,0.0162,0.0119,0.0119,0.0118,0.0118,0.004,0.0038,0.0036,0,0,0,0,0,0,0,0,0,0,0,0,0,0.0177,0.019,0.0189,0.0167,0.0165,0.0164,0.0163,0.0162,0.012,0.0119,0.0118,0.0117,0.0041,0.0038,0.0036,0.0036,0,0,0.0029,0.0028,0,0,0,0,0,0,0,0,0.0178,0.0176,0.017,0.0168,0.0166,0.0147,0.0135,0.0118,0.012,0.0133,0.0118,0.0117,0.0073,0.0068,0.0061,0.0032,0.0029,0.0028,0.0027,0.0026,0.0025,0,0,0,0,0,0,0,0.0179,0.0177,0.0175,0.017,0.0168,0.0155,0.0152,0.0131,0.0104,0.0132,0.013,0.0132,0.0071,0.0064,0.0059,0.0028,0.0028,0.0026,0.0025,0.0024,-0.0011,-0.001,0,0,0,0,0,0,0.019,0.0178,0.0176,0.0175,0.0174,0.0156,0.0152,0.0151,0.0105,0.0099,0.0133,0.013,0.0068,0.0062,0.0056,0.0066,0.0026,0.0024,0.0022,-0.0011,-0.001,-0.001,0,0,0,0,0,0,0.019,0.019,0.0177,0.0179,0.0177,0.0157,0.0156,0.0151,0.0145,0.0107,0.0099,0.0132,0.0067,0.0059,0.0045,0.0062,0.0023,0.002,-0.0012,-0.0011,-0.001,0.0078,0,0,0,0,0,0,0.019,0.019,0.0189,0.018,0.0177,0.0184,0.0157,0.0151,0.0149,0.0146,0.0104,0.0096,0.0066,0.0049,0.0043,0.0058,0.0018,-0.0012,-0.0011,-0.001,0.0075,0.0082,0.0088,0,0,0,0,0,0.019,0.0199,0.0189,0.0189,0.0178,0.0186,0.0183,0.0164,0.015,0.0154,0.0127,0.0097,0.0051,0.0048,0.004,0.0055,-0.0013,-0.0012,-0.001,0.0071,0.008,0.0088,0,0,0,0,0,0,0.02,0.0196,0.0184,0.0191,0.0191,0.018,0.0182,0.0171,0.0154,0.0146,0.0107,0.0098,0.009,0.006,0.0058,0.0047,0.0013,0.0013,0.0078,0.0086,0.0092,0.0109,0.0016,0,0,0,0,0,0.0203,0.0206,0.0203,0.0207,0.021,0.0197,0.0196,0.0186,0.0172,0.0164,0.0138,0.0108,0.0089,0.0079,0.0053,0.0052,0.0032,0.0054,0.0061,0.0067,0.0074,0.0068,0.0076,-0.0006,-0.0006,-0.0006,0,0,0.0207,0.0207,0.0206,0.0209,0.0205,0.0221,0.0194,0.02,0.0211,0.0158,0.016,0.0131,0.0093,0.009,0.0083,0.0068,0.0079,0.0068,0.0074,0.0078,0.007,0.0079,0.0086,-0.0005,-0.0005,-0.0005,0,0,0.0233,0.0219,0.0236,0.0241,0.0245,0.0238,0.0245,0.0238,0.0232,0.0233,0.0199,0.0186,0.0152,0.0137,0.0123,0.0153,0.0114,0.0138,0.0189,0.0184,0.0191,0.0197,0.0186,0.019,0.0144,0.0144,0.0144,0,0.0239,0.0259,0.0243,0.0267,0.0277,0.0252,0.028,0.0273,0.0263,0.027,0.0242,0.0215,0.0178,0.0189,0.0192,0.017,0.0156,0.0165,0.0195,0.0201,0.0205,0.0192,0.0196,0.0149,0.0148,0.0148,0.0147,0,0.0285,0.0298,0.0312,0.033,0.0336,0.0356,0.0351,0.0356,0.0341,0.0337,0.0341,0.0297,0.0284,0.0269,0.0235,0.0254,0.023,0.0205,0.018,0.0219,0.0202,0.0204,0.0155,0.0153,0.0152,0.0151,0,0,0.0312,0.0339,0.0344,0.0367,0.0373,0.0389,0.0407,0.0427,0.0459,0.0428,0.0468,0.0419,0.0397,0.0379,0.0341,0.033,0.0343,0.0284,0.0282,0.0283,0.033,0.0301,0.03,0.0326,0.0326,0.0327,0.0306,0,0.0356,0.0415,0.0411,0.0462,0.0493,0.0479,0.051,0.052,0.0518,0.0548,0.0507,0.0523,0.044,0.0447,0.0418,0.0371,0.0352,0.0351,0.0282,0.028,0.0258,0.0303,0.0279,0.0258,0.0308,0.0308,0.0309,0,0.0408,0.0442,0.05,0.0546,0.056,0.0582,0.063,0.0658,0.0682,0.0685,0.0678,0.0648,0.0632,0.0558,0.0485,0.0488,0.0411,0.0363,0.036,0.0305,0.0256,0.0224,0.0259,0.0128,0.0311,0.0311,0.0311,0,0.0449,0.0504,0.0552,0.0567,0.0614,0.0639,0.0669,0.0702,0.0755,0.0783,0.0828,0.0777,0.0786,0.0681,0.0557,0.0529,0.0478,0.0428,0.0326,0.0323,0.0274,0.0266,0.0183,0.0372,0.0372,0.0372,0.0372,0,0.0503,0.0543,0.0578,0.0607,0.0683,0.0698,0.0782,0.0807,0.0874,0.0966,0.0909,0.0967,0.0818,0.0765,0.0617,0.0488,0.052,0.0347,0.0323,0.0303,0.0298,0.0157,0.0068,0.0372,0.0372,0.0372,0.0372,0,0.0542,0.0561,0.0627,0.0683,0.0703,0.0764,0.086,0.0937,0.0989,0.111,0.1134,0.1127,0.1063,0.0899,0.0751,0.0592,0.0367,0.0394,0.0378,0.0351,0.0121,0.0038,-0.0085,-0.0153,0.0284,0.0283,0.0282,0,0.0573,0.0608,0.0678,0.0731,0.0757,0.0843,0.0917,0.0985,0.1084,0.1216,0.1296,0.1275,0.1274,0.1041,0.0761,0.0513,0.0363,0.0322,0.0253,0.0118,0.0007,-0.0049,-0.0101,0.0222,0.0221,0.022,0.0219,0,0.064,0.0655,0.0708,0.081,0.0886,0.0987,0.1102,0.1193,0.1309,0.1414,0.1547,0.1557,0.134,0.108,0.0733,0.0549,0.0213,0.0296,0.0164,-0.0038,-0.0112,-0.0192,0.022,0.0211,0.0212,0.0213,0.0213,0.0214,0.069,0.0743,0.0812,0.0906,0.1004,0.1142,0.1243,0.1377,0.154,0.1717,0.1714,0.1744,0.1371,0.0897,0.0633,0.0152,0.015,-0.0009,-0.0094,-0.0134,-0.0216,0.0178,0.0136,0.0136,0.0136,0.0137,0.0137,0,0.0764,0.082,0.0913,0.1038,0.1158,0.1192,0.1381,0.1496,0.1691,0.1808,0.19,0.172,0.1259,0.0802,0.015,-0.0181,-0.0299,-0.0352,-0.0443,-0.0475,-0.0115,-0.0133,-0.0245,-0.0245,-0.0245,-0.0245,-0.0245,-0.0244,0.0813,0.0905,0.0946,0.1147,0.1242,0.1418,0.1529,0.1685,0.1801,0.1926,0.1923,0.191,0.1571,0.0411,-0.0334,-0.0502,-0.0723,-0.0796,-0.088,-0.0648,-0.0623,-0.0598,-0.0635,-0.085,-0.0851,-0.1201,-0.1205,-0.1208]}],[{"header":{"parameterUnit":"m.s-1","parameterCategory":2,"la1":30.2991,"la2":30.254,"lo1":-89.0895,"lo2":-89.0444,"dy":0.0017,"dx":0.0017,"nx":28,"ny":28,"refTime":"2025-03-21T09:00:00:Z","depth":"2","parameterNumber":2,"parameterNumberName":"U-component_of_CURRENTS"},"data":[0,0,0,0,0,0,0,0,0,0,0,0,0,0,0,0,0,0,0,0,0,0,0,0,0,0,0,0,0,0,0,0,0,0,0,0,0,0,0,0,0,0,0,0,0,0,0,0,0,0,0,0,0,0,0,0,0,0,0.2232,0.2232,0,0.2254,0.2254,0.2255,0.2304,0.2305,0.2306,0.2306,0.2331,0.2331,0.2331,0,0,0,0,0,0,0,0,0,0,0,0,0,0.2265,0.2264,0.2232,0.2232,0.2232,0.2254,0.2254,0.2255,0.2304,0.2305,0.2306,0.2307,0.2331,0.2331,0.2331,0,0,0,0,0,0,0,0,0,0,0,0,0,0.2268,0.2264,0.2232,0.2257,0.2259,0.2254,0.2254,0.2255,0.2304,0.2305,0.2306,0.2307,0.2331,0.2331,0.2331,0.231,0,0,0.2331,0.2331,0,0,0,0,0,0,0,0,0.2268,0.2267,0.2253,0.2255,0.2257,0.2274,0.2275,0.2272,0.2304,0.229,0.2306,0.2308,0.2309,0.2311,0.2318,0.2311,0.2312,0.2331,0.2331,0.2331,0.2331,0,0,0,0,0,0,0,0.2268,0.2267,0.2244,0.2253,0.2255,0.2277,0.2279,0.2275,0.2296,0.2292,0.2294,0.2291,0.2311,0.2318,0.2319,0.2313,0.2331,0.2331,0.2331,0.2331,0.2363,0.2364,0,0,0,0,0,0,0.2255,0.2266,0.2243,0.2244,0.2261,0.2275,0.2277,0.2271,0.2296,0.23,0.229,0.2293,0.2317,0.2319,0.232,0.2348,0.2331,0.2331,0.2331,0.2362,0.2363,0.2364,0,0,0,0,0,0,0.2255,0.2252,0.2243,0.2254,0.2253,0.2273,0.2265,0.227,0.2286,0.2295,0.23,0.2301,0.2318,0.232,0.2335,0.2348,0.2331,0.2331,0.2361,0.2362,0.2363,0.2372,0,0,0,0,0,0,0.2256,0.2252,0.2244,0.2252,0.2252,0.2239,0.2264,0.227,0.228,0.2284,0.2305,0.2308,0.2319,0.2335,0.2335,0.2347,0.2331,0.236,0.2362,0.2363,0.2371,0.2373,0.2376,0,0,0,0,0,0.2257,0.2244,0.2243,0.2241,0.2239,0.2238,0.2241,0.2261,0.2279,0.2281,0.2307,0.2308,0.2345,0.2335,0.2335,0.2348,0.2359,0.2361,0.2363,0.2369,0.2373,0.2376,0,0,0,0,0,0,0.2253,0.2247,0.2247,0.2232,0.2232,0.2246,0.2256,0.226,0.2282,0.2299,0.231,0.2314,0.2333,0.2338,0.2327,0.2364,0.2355,0.2357,0.236,0.2363,0.2366,0.2368,0.2331,0,0,0,0,0,0.2244,0.2239,0.2232,0.2223,0.2229,0.2241,0.2245,0.2255,0.2272,0.2284,0.2292,0.2315,0.2338,0.2349,0.2359,0.2372,0.2404,0.2384,0.2387,0.2389,0.2392,0.2455,0.2464,0.237,0.237,0.237,0,0,0.2243,0.2236,0.2235,0.2222,0.2237,0.224,0.2249,0.226,0.2267,0.2281,0.23,0.2315,0.2341,0.2364,0.2374,0.2373,0.2436,0.2391,0.2393,0.2395,0.2458,0.2467,0.2475,0.2371,0.2371,0.2371,0,0,0.2238,0.2234,0.2231,0.2234,0.2241,0.2245,0.2246,0.2255,0.227,0.2276,0.2304,0.2326,0.2341,0.2371,0.2389,0.2409,0.2442,0.2417,0.2435,0.2496,0.2505,0.2512,0.2579,0.2592,0.2424,0.2424,0.2424,0,0.2229,0.2224,0.2229,0.2231,0.2241,0.2248,0.2254,0.2264,0.2272,0.2294,0.2284,0.2342,0.2346,0.2406,0.2414,0.2413,0.2462,0.242,0.25,0.2508,0.2516,0.2582,0.2597,0.2425,0.2425,0.2425,0.2425,0,0.2228,0.2226,0.2233,0.2237,0.2245,0.2254,0.2267,0.2279,0.229,0.2302,0.2346,0.236,0.2405,0.2405,0.2412,0.2477,0.2498,0.2491,0.2491,0.2526,0.2593,0.2609,0.2426,0.2426,0.2425,0.2425,0,0,0.2187,0.2222,0.2221,0.2236,0.2254,0.2259,0.2287,0.2312,0.2348,0.235,0.2407,0.2421,0.2442,0.2464,0.2482,0.2519,0.2603,0.2529,0.2532,0.2594,0.2759,0.2667,0.2675,0.262,0.2622,0.2624,0.2789,0,0.2179,0.2191,0.221,0.2228,0.2242,0.2275,0.2301,0.2332,0.2361,0.2413,0.2449,0.2501,0.2465,0.2505,0.2535,0.2596,0.2642,0.2559,0.2718,0.2722,0.2635,0.2689,0.2484,0.2605,0.2804,0.2807,0.2809,0,0.2159,0.2174,0.2196,0.2243,0.2255,0.2268,0.2334,0.2361,0.2442,0.248,0.2541,0.2574,0.2649,0.2606,0.2723,0.2681,0.2719,0.2747,0.2754,0.2673,0.2657,0.26,0.2625,0.2834,0.2832,0.283,0.2829,0,0.2129,0.2158,0.218,0.2195,0.2248,0.2277,0.231,0.2381,0.2429,0.2541,0.2599,0.2681,0.275,0.2802,0.2845,0.2809,0.2971,0.2935,0.2889,0.2885,0.2741,0.2718,0.3013,0.3013,0.3013,0.3012,0.3012,0,0.2107,0.2121,0.2171,0.2184,0.2221,0.227,0.2332,0.2385,0.2485,0.2568,0.2639,0.2719,0.2802,0.2891,0.2909,0.2953,0.3033,0.2906,0.2921,0.2737,0.2713,0.2926,0.2914,0.3018,0.3017,0.3016,0.3015,0,0.2074,0.2105,0.2133,0.2191,0.2209,0.2242,0.2335,0.2387,0.249,0.2609,0.2658,0.2789,0.2909,0.2974,0.3088,0.3038,0.3087,0.308,0.2858,0.2841,0.2948,0.2935,0.3055,0.3053,0.3052,0.305,0.3049,0,0.2061,0.2075,0.2128,0.2152,0.218,0.2238,0.2283,0.2381,0.2448,0.2642,0.27,0.2855,0.2929,0.3053,0.3035,0.3074,0.3111,0.2875,0.2734,0.295,0.2954,0.2943,0.2931,0.2572,0.2567,0.2563,0.256,0,0.2045,0.2068,0.2108,0.2149,0.219,0.2242,0.2317,0.2347,0.2493,0.2583,0.2719,0.279,0.2913,0.2841,0.2875,0.2857,0.2844,0.279,0.3117,0.2566,0.25,0.2501,0.2506,0.2524,0.2527,0.253,0.2532,0.2533,0.2043,0.2068,0.2122,0.2159,0.2222,0.2256,0.2255,0.232,0.2395,0.2469,0.2614,0.2629,0.2665,0.2586,0.2535,0.25,0.2672,0.2541,0.2552,0.2568,0.2455,0.2387,0.2371,0.2374,0.2376,0.2378,0.238,0,0.2036,0.2073,0.2119,0.217,0.2211,0.2252,0.2293,0.2231,0.2242,0.2322,0.2374,0.2198,0.216,0.2207,0.2099,0.2088,0.2053,0.2004,0.1945,0.1984,0.2019,0.1874,0.1638,0.1635,0.1632,0.163,0,0,0.2036,0.2074,0.2096,0.2146,0.2185,0.2168,0.2158,0.2055,0.2045,0.1953,0.1935,0.2052,0.2146,0.1849,0.1829,0.172,0.1831,0.1657,0.2264,0.2237,0.2267,0.2355,0.218,0,0,0,0,0]},{"header":{"parameterUnit":"m.s-1","parameterCategory":2,"la1":30.2991,"la2":30.254,"lo1":-89.0895,"lo2":-89.0444,"dy":0.0017,"dx":0.0017,"nx":28,"ny":28,"refTime":"2025-03-21T09:00:00:Z","depth":"2","parameterNumber":3,"parameterNumberName":"V-component_of_CURRENTS"},"data":[0,0,0,0,0,0,0,0,0,0,0,0,0,0,0,0,0,0,0,0,0,0,0,0,0,0,0,0,0,0,0,0,0,0,0,0,0,0,0,0,0,0,0,0,0,0,0,0,0,0,0,0,0,0,0,0,0,0,0.0056,0.0056,0,0.0037,0.0037,0.0036,0.0008,0.0007,0.0007,0.0007,-0.0073,-0.0075,-0.0076,0,0,0,0,0,0,0,0,0,0,0,0,0,0.0056,0.0056,0.0056,0.0056,0.0056,0.0037,0.0037,0.0036,0.0008,0.0007,0.0007,0.0007,-0.0072,-0.0074,-0.0077,0,0,0,0,0,0,0,0,0,0,0,0,0,0.0046,0.0056,0.0056,0.0041,0.0039,0.0037,0.0037,0.0036,0.0008,0.0007,0.0007,0.0006,-0.0072,-0.0074,-0.0077,-0.0085,0,0,-0.0085,-0.0087,0,0,0,0,0,0,0,0,0.0047,0.0046,0.0043,0.0042,0.004,0.0026,0.0008,-0.0007,0.0008,0.0017,0.0007,0.0006,-0.0044,-0.0049,-0.0053,-0.0088,-0.0092,-0.0086,-0.0087,-0.0088,-0.0089,0,0,0,0,0,0,0,0.0047,0.0046,0.0046,0.0043,0.0041,0.0032,0.0029,0.0005,-0.0013,0.0017,0.0015,0.0017,-0.0045,-0.0051,-0.0056,-0.0093,-0.0085,-0.0088,-0.009,-0.0091,-0.0136,-0.0136,0,0,0,0,0,0,0.0055,0.0047,0.0047,0.0046,0.0045,0.0032,0.003,0.0029,-0.0012,-0.0017,0.0017,0.0015,-0.0046,-0.0052,-0.0059,-0.0054,-0.0088,-0.0091,-0.0093,-0.0137,-0.0136,-0.0136,0,0,0,0,0,0,0.0055,0.0055,0.0047,0.0048,0.0046,0.0033,0.0032,0.0029,0.0028,-0.001,-0.0017,0.0019,-0.0046,-0.0055,-0.0071,-0.0058,-0.0092,-0.0095,-0.0137,-0.0137,-0.0136,-0.0055,0,0,0,0,0,0,0.0055,0.0055,0.0055,0.0048,0.0047,0.0054,0.0033,0.0029,0.003,0.0028,-0.0011,-0.0019,-0.0047,-0.0067,-0.0074,-0.0062,-0.0097,-0.0138,-0.0137,-0.0136,-0.0058,-0.0052,-0.0046,0,0,0,0,0,0.0055,0.006,0.0055,0.0055,0.0047,0.0055,0.0053,0.004,0.0031,0.0036,0.0011,-0.0017,-0.0067,-0.0068,-0.0077,-0.0066,-0.0138,-0.0137,-0.0136,-0.0061,-0.0053,-0.0046,0,0,0,0,0,0,0.0058,0.0058,0.0052,0.0055,0.0058,0.0051,0.0054,0.0047,0.0032,0.0027,-0.001,-0.0019,-0.0031,-0.0059,-0.006,-0.0078,-0.0108,-0.0109,-0.0048,-0.0041,-0.0035,-0.0023,-0.0099,0,0,0,0,0,0.006,0.0063,0.0064,0.0067,0.0071,0.0064,0.0064,0.0058,0.0047,0.0041,0.0017,-0.0012,-0.0034,-0.0045,-0.0072,-0.0078,-0.0104,-0.0078,-0.0072,-0.0067,-0.0063,-0.0084,-0.0079,-0.0133,-0.0133,-0.0133,0,0,0.0062,0.0062,0.0063,0.0068,0.0067,0.0082,0.0063,0.007,0.008,0.0033,0.0035,0.0007,-0.0032,-0.0039,-0.0046,-0.006,-0.0065,-0.0066,-0.006,-0.006,-0.0082,-0.0077,-0.0072,-0.0132,-0.0132,-0.0132,0,0,0.0078,0.007,0.0083,0.009,0.0097,0.0094,0.0101,0.0101,0.0098,0.0098,0.0068,0.0052,0.0019,0.0,-0.0016,0.0007,-0.0033,-0.0004,0.004,0.0021,0.0025,0.0029,0.0009,0.001,0.0002,0.0002,0.0002,0,0.0081,0.0098,0.0089,0.0108,0.0119,0.0106,0.0129,0.0127,0.012,0.0126,0.0106,0.0074,0.0038,0.0037,0.0042,0.0021,0.0003,0.0019,0.003,0.0033,0.0036,0.0014,0.0014,0.0006,0.0006,0.0005,0.0005,0,0.0113,0.0126,0.0138,0.0156,0.0163,0.0182,0.0183,0.0191,0.0184,0.018,0.0179,0.0139,0.0122,0.0108,0.0079,0.0084,0.0064,0.004,0.0016,0.0046,0.0021,0.002,0.0012,0.001,0.0009,0.0008,0,0,0.0131,0.0156,0.0162,0.0183,0.0193,0.0209,0.0226,0.0245,0.0269,0.0248,0.0278,0.0232,0.0214,0.0194,0.0161,0.0143,0.014,0.0104,0.0101,0.0093,0.01,0.0047,0.004,0.0122,0.0123,0.0123,0.0078,0,0.0166,0.0212,0.0212,0.0257,0.0285,0.028,0.0306,0.0316,0.0315,0.0338,0.0302,0.0311,0.0247,0.0252,0.0219,0.0165,0.014,0.0154,0.0064,0.0062,0.0018,0.0038,0.0059,0.0018,0.0077,0.0077,0.0076,0,0.0206,0.0234,0.0283,0.0325,0.0338,0.036,0.0403,0.0426,0.0442,0.0448,0.0439,0.0409,0.0386,0.033,0.0243,0.0257,0.0182,0.0131,0.0128,0.0048,0.0006,-0.0006,0.0013,0.0074,0.0074,0.0074,0.0074,0,0.024,0.0286,0.0328,0.0342,0.0384,0.0409,0.0438,0.0461,0.0505,0.0528,0.0561,0.0508,0.0509,0.0407,0.0286,0.027,0.0189,0.0151,0.003,0.0026,0.0009,0.0003,0.0083,0.0083,0.0084,0.0084,0.0084,0,0.0282,0.032,0.0351,0.0379,0.0445,0.0459,0.0534,0.0555,0.0608,0.0684,0.0627,0.0664,0.0529,0.0462,0.0328,0.018,0.0216,0.004,0.0012,0.0037,0.0034,0.0051,0.0048,0.0082,0.0082,0.0083,0.0083,0,0.0314,0.0333,0.0391,0.0442,0.0463,0.0516,0.0607,0.0666,0.071,0.0809,0.0829,0.0793,0.0706,0.0551,0.0397,0.0248,0.0105,0.004,0.0077,0.0052,-0.0058,-0.0057,-0.0101,-0.0104,-0.0106,-0.0107,-0.0108,0,0.0339,0.037,0.0435,0.048,0.0507,0.0588,0.0652,0.0715,0.0794,0.0893,0.0949,0.0897,0.0859,0.0598,0.0353,0.0112,0.009,-0.0043,-0.0089,-0.0053,-0.0077,-0.0072,-0.0068,-0.0072,-0.0073,-0.0073,-0.0074,0,0.039,0.0406,0.0458,0.0541,0.061,0.0708,0.0809,0.088,0.0984,0.1063,0.1146,0.1118,0.0879,0.0631,0.0293,0.0125,-0.0009,-0.007,-0.0022,-0.0038,-0.0032,-0.0053,-0.0048,-0.0081,-0.008,-0.0079,-0.0079,-0.0079,0.0432,0.0471,0.0531,0.0609,0.0718,0.0839,0.0925,0.1032,0.1166,0.1285,0.1256,0.1218,0.0935,0.0487,0.0213,-0.0065,-0.0063,-0.0178,-0.0172,-0.0167,-0.0165,-0.0164,-0.0236,-0.0237,-0.0237,-0.0237,-0.0237,0,0.048,0.0515,0.0592,0.0696,0.082,0.0876,0.1045,0.1123,0.1277,0.1345,0.1384,0.1107,0.0817,0.0519,0.01,-0.0179,-0.0181,-0.0262,-0.0195,-0.0187,-0.0181,-0.0177,-0.0253,-0.0254,-0.0255,-0.0255,0,0,0.0506,0.0566,0.0587,0.0761,0.0865,0.1037,0.1149,0.1267,0.135,0.139,0.1369,0.1259,0.0897,0.0583,0.0228,0.0002,-0.0031,-0.0052,-0.0014,0.0116,0.0126,-0.0112,-0.0096,0,0,0,0,0]}],[{"header":{"parameterUnit":"m.s-1","parameterCategory":2,"la1":30.2991,"la2":30.254,"lo1":-89.0895,"lo2":-89.0444,"dy":0.0017,"dx":0.0017,"nx":28,"ny":28,"refTime":"2025-03-21T09:00:00:Z","depth":"4","parameterNumber":2,"parameterNumberName":"U-component_of_CURRENTS"},"data":[0,0,0,0,0,0,0,0,0,0,0,0,0,0,0,0,0,0,0,0,0,0,0,0,0,0,0,0,0,0,0,0,0,0,0,0,0,0,0,0,0,0,0,0,0,0,0,0,0,0,0,0,0,0,0,0,0,0,0.1161,0.1162,0,0.1247,0.1248,0.1248,0.131,0.1311,0.1312,0.1312,0.136,0.136,0.1361,0,0,0,0,0,0,0,0,0,0,0,0,0,0.1054,0.1055,0.116,0.1162,0.1163,0.1247,0.1248,0.1249,0.131,0.1311,0.1312,0.1313,0.1359,0.136,0.1361,0,0,0,0,0,0,0,0,0,0,0,0,0,0.1113,0.1056,0.116,0.1206,0.1212,0.1247,0.1248,0.1249,0.131,0.1311,0.1312,0.1313,0.1359,0.136,0.1361,0.1341,0,0,0.1363,0.1363,0,0,0,0,0,0,0,0,0.1109,0.1116,0.1198,0.1203,0.1209,0.1272,0.1228,0.1279,0.1309,0.1269,0.1312,0.1314,0.1328,0.1331,0.1341,0.1343,0.1345,0.1363,0.1363,0.1364,0.1364,0,0,0,0,0,0,0,0.1105,0.1113,0.1191,0.12,0.1206,0.1225,0.1234,0.1238,0.1287,0.1272,0.1278,0.1293,0.133,0.134,0.1342,0.1346,0.1363,0.1364,0.1364,0.1364,0.1431,0.1432,0,0,0,0,0,0,0.11,0.1109,0.1189,0.1194,0.1165,0.1226,0.1236,0.1248,0.1288,0.1297,0.1291,0.1295,0.1338,0.1341,0.1344,0.141,0.1364,0.1365,0.1365,0.143,0.1431,0.1433,0,0,0,0,0,0,0.1097,0.1106,0.1185,0.1157,0.1168,0.1227,0.1239,0.1249,0.1299,0.1304,0.1311,0.1336,0.1339,0.1343,0.1373,0.1409,0.1365,0.1366,0.1428,0.143,0.1432,0.1485,0,0,0,0,0,0,0.1094,0.1104,0.1122,0.1156,0.117,0.1234,0.1239,0.125,0.1305,0.1312,0.1343,0.1347,0.134,0.1372,0.1374,0.1409,0.1366,0.1427,0.1429,0.1432,0.1482,0.1489,0.1494,0,0,0,0,0,0.109,0.1105,0.1122,0.1133,0.1189,0.1236,0.1245,0.1288,0.1306,0.1336,0.135,0.1348,0.139,0.1373,0.1375,0.1411,0.1425,0.1428,0.1431,0.1479,0.1487,0.1494,0,0,0,0,0,0,0.1068,0.1114,0.1134,0.1163,0.1211,0.1249,0.1279,0.1309,0.1345,0.1354,0.1358,0.1362,0.1405,0.1398,0.1381,0.1438,0.141,0.1414,0.1446,0.1454,0.146,0.1453,0.1367,0,0,0,0,0,0.1071,0.1099,0.1145,0.1175,0.1197,0.1245,0.1275,0.1307,0.1338,0.1358,0.1383,0.14,0.1412,0.1426,0.1437,0.1462,0.1466,0.1489,0.1496,0.1501,0.1498,0.1534,0.1543,0.1443,0.1443,0.1443,0,0,0.1068,0.1102,0.1117,0.1174,0.121,0.1245,0.1266,0.1321,0.1356,0.1353,0.1412,0.1427,0.1424,0.1457,0.1476,0.146,0.1536,0.1505,0.151,0.1503,0.1538,0.1548,0.1556,0.1445,0.1444,0.1444,0,0,0.1074,0.1112,0.1134,0.1175,0.1242,0.127,0.1295,0.1356,0.1392,0.1441,0.1448,0.1482,0.1511,0.1516,0.1516,0.1564,0.157,0.1582,0.1607,0.1643,0.1651,0.1659,0.1691,0.1701,0.1583,0.1583,0.1583,0,0.1072,0.1108,0.1151,0.1187,0.122,0.1284,0.1315,0.1357,0.1426,0.1455,0.1469,0.1529,0.1533,0.1559,0.1577,0.1578,0.1602,0.1577,0.1651,0.1659,0.1665,0.1696,0.1706,0.1586,0.1585,0.1585,0.1585,0,0.1084,0.1128,0.1149,0.1209,0.1251,0.1295,0.1352,0.1409,0.1461,0.1501,0.1568,0.158,0.1618,0.1629,0.1613,0.1667,0.167,0.1658,0.163,0.1679,0.1708,0.1718,0.159,0.1589,0.1588,0.1587,0,0,0.1046,0.1136,0.1149,0.1185,0.1268,0.1302,0.1364,0.1433,0.1481,0.1555,0.1615,0.1643,0.1678,0.168,0.1687,0.171,0.1778,0.1709,0.1709,0.1738,0.1869,0.1738,0.1736,0.1789,0.179,0.1792,0.1876,0,0.1049,0.1106,0.1153,0.1219,0.1254,0.1326,0.1377,0.1449,0.1516,0.1594,0.1636,0.1699,0.1691,0.1726,0.175,0.1773,0.1804,0.1757,0.1819,0.182,0.1696,0.1742,0.1797,0.1883,0.1885,0.1887,0.1888,0,0.1046,0.1089,0.1142,0.1232,0.1252,0.1303,0.1398,0.1453,0.156,0.1617,0.1693,0.1744,0.1807,0.1793,0.1864,0.1842,0.1862,0.1872,0.1875,0.1736,0.1706,0.1821,0.1905,0.1903,0.1902,0.1901,0.19,0,0.0995,0.1085,0.1128,0.1159,0.126,0.1307,0.1367,0.1468,0.1529,0.1651,0.1717,0.1797,0.1861,0.1898,0.1926,0.1918,0.1989,0.198,0.1882,0.1874,0.1943,0.1934,0.203,0.2029,0.2029,0.2029,0.2029,0,0.0976,0.102,0.1118,0.1143,0.1208,0.1286,0.1363,0.1441,0.1559,0.1629,0.1735,0.1801,0.1895,0.1949,0.1957,0.194,0.2024,0.1889,0.1884,0.1966,0.1958,0.1951,0.1941,0.2032,0.2032,0.2031,0.203,0,0.0926,0.0989,0.1044,0.1147,0.1189,0.1237,0.137,0.1415,0.1545,0.1643,0.1697,0.1842,0.191,0.1965,0.2027,0.1972,0.197,0.1942,0.2032,0.203,0.1832,0.1824,0.1859,0.1855,0.1852,0.1849,0.1847,0,0.0897,0.0923,0.103,0.1058,0.1116,0.1201,0.1251,0.1397,0.1454,0.1644,0.1681,0.1816,0.1885,0.1875,0.1934,0.1946,0.1917,0.191,0.186,0.1822,0.1814,0.1811,0.1808,0.1841,0.184,0.184,0.1839,0,0.0826,0.0877,0.0907,0.0943,0.1004,0.1099,0.1195,0.1243,0.14,0.1543,0.1639,0.1697,0.1764,0.1809,0.1822,0.1823,0.1909,0.1875,0.1882,0.1835,0.1801,0.1796,0.1796,0.1827,0.1829,0.183,0.1831,0,0.0758,0.0733,0.0737,0.078,0.0873,0.0951,0.1041,0.1126,0.1219,0.1454,0.1479,0.1613,0.1748,0.1746,0.1755,0.1745,0.1729,0.1672,0.169,0.1703,0.1608,0.1539,0.1483,0,0,0,0,0,0.0663,0.0572,0.0562,0.0581,0.07,0.0759,0.0961,0.106,0.1242,0.1273,0.1383,0.1444,0.1506,0.158,0.1539,0.1665,0.1709,0.1608,0.1645,0.1762,0.1776,0.1675,0,0,0,0,0,0,0.0564,0.0509,0.046,0.0424,0.0436,0.0534,0.0684,0.0835,0.0886,0.1094,0.1143,0.1306,0.1387,0.147,0.1477,0.1498,0.1488,0.1704,0.17,0.1755,0.1767,0.1778,0.1678,0,0,0,0,0]},{"header":{"parameterUnit":"m.s-1","parameterCategory":2,"la1":30.2991,"la2":30.254,"lo1":-89.0895,"lo2":-89.0444,"dy":0.0017,"dx":0.0017,"nx":28,"ny":28,"refTime":"2025-03-21T09:00:00:Z","depth":"4","parameterNumber":3,"parameterNumberName":"V-component_of_CURRENTS"},"data":[0,0,0,0,0,0,0,0,0,0,0,0,0,0,0,0,0,0,0,0,0,0,0,0,0,0,0,0,0,0,0,0,0,0,0,0,0,0,0,0,0,0,0,0,0,0,0,0,0,0,0,0,0,0,0,0,0,0,0.0032,0.0032,0,0.0012,0.0012,0.0012,-0.0008,-0.0008,-0.0008,-0.0008,-0.0073,-0.0075,-0.0076,0,0,0,0,0,0,0,0,0,0,0,0,0,0.0025,0.0025,0.0032,0.0032,0.0032,0.0012,0.0012,0.0011,-0.0008,-0.0008,-0.0008,-0.0008,-0.0073,-0.0075,-0.0077,0,0,0,0,0,0,0,0,0,0,0,0,0,0.0017,0.0025,0.0032,0.0021,0.002,0.0012,0.0012,0.0011,-0.0007,-0.0008,-0.0008,-0.0008,-0.0072,-0.0074,-0.0077,-0.0089,0,0,-0.0084,-0.0085,0,0,0,0,0,0,0,0,0.0018,0.0018,0.0023,0.0022,0.0021,0.0006,-0.0014,-0.0024,-0.0007,0.0001,-0.0008,-0.0008,-0.005,-0.0054,-0.0059,-0.0092,-0.0095,-0.0085,-0.0086,-0.0087,-0.0088,0,0,0,0,0,0,0,0.0019,0.0018,0.0022,0.0023,0.0021,0.0008,0.0006,-0.0016,-0.0025,0.0,-0.0001,-0.0,-0.0051,-0.0057,-0.0061,-0.0096,-0.0085,-0.0087,-0.0088,-0.0089,-0.0153,-0.0153,0,0,0,0,0,0,0.0026,0.0019,0.0023,0.0022,0.0021,0.0008,0.0007,0.001,-0.0024,-0.0028,-0.0,-0.0001,-0.0052,-0.0058,-0.0063,-0.008,-0.0087,-0.0089,-0.0091,-0.0153,-0.0153,-0.0153,0,0,0,0,0,0,0.0026,0.0027,0.0024,0.0021,0.002,0.0009,0.0012,0.0009,0.0005,-0.0024,-0.0029,-0.0002,-0.0053,-0.006,-0.0078,-0.0082,-0.0091,-0.0093,-0.0153,-0.0153,-0.0153,-0.0113,0,0,0,0,0,0,0.0026,0.0027,0.0026,0.0022,0.002,0.0022,0.0012,0.0009,0.0006,0.0004,-0.0027,-0.0033,-0.0053,-0.0074,-0.008,-0.0086,-0.0095,-0.0152,-0.0153,-0.0153,-0.0114,-0.0112,-0.011,0,0,0,0,0,0.0026,0.0026,0.0026,0.0027,0.0022,0.0023,0.002,0.0011,0.0006,0.0005,-0.0013,-0.0032,-0.0082,-0.0076,-0.0083,-0.009,-0.0152,-0.0153,-0.0153,-0.0115,-0.0112,-0.011,0,0,0,0,0,0,0.0019,0.0025,0.0024,0.0026,0.0027,0.002,0.0015,0.0013,-0.0001,-0.0005,-0.0031,-0.0038,-0.0057,-0.0079,-0.0072,-0.0111,-0.0122,-0.0124,-0.0091,-0.0088,-0.0086,-0.0074,-0.0097,0,0,0,0,0,0.002,0.0023,0.0027,0.0027,0.0028,0.0023,0.002,0.0018,0.0008,0.0001,-0.0016,-0.0042,-0.0065,-0.008,-0.0102,-0.0121,-0.0145,-0.0133,-0.0131,-0.0129,-0.0125,-0.016,-0.016,-0.0155,-0.0155,-0.0155,0,0,0.0015,0.002,0.002,0.0026,0.0023,0.0027,0.002,0.002,0.0023,-0.0005,-0.0012,-0.0034,-0.0068,-0.0087,-0.0099,-0.0106,-0.0144,-0.0129,-0.0127,-0.0124,-0.0161,-0.0161,-0.0161,-0.0155,-0.0155,-0.0155,0,0,0.0013,0.0015,0.0019,0.0023,0.0026,0.0027,0.003,0.0029,0.0026,0.0021,-0.0001,-0.002,-0.0053,-0.0076,-0.0094,-0.0096,-0.013,-0.0109,-0.0091,-0.0125,-0.0125,-0.0126,-0.0157,-0.0161,-0.011,-0.011,-0.011,0,0.0007,0.0016,0.0018,0.0025,0.0029,0.003,0.0036,0.0035,0.0029,0.0029,0.0023,-0.002,-0.0048,-0.0074,-0.0074,-0.0091,-0.0114,-0.0094,-0.0121,-0.0123,-0.0124,-0.0155,-0.016,-0.0108,-0.0108,-0.0108,-0.0109,0,0.0009,0.0017,0.0019,0.0031,0.0035,0.0041,0.0046,0.0051,0.0051,0.0048,0.0032,0.0,-0.0025,-0.0041,-0.0058,-0.0083,-0.0098,-0.0111,-0.0123,-0.0122,-0.0155,-0.0161,-0.0105,-0.0106,-0.0107,-0.0107,0,0,0.0001,0.0018,0.002,0.0032,0.0041,0.0049,0.0056,0.0065,0.0074,0.0061,0.0063,0.0023,0.0012,-0.0009,-0.0037,-0.0066,-0.0097,-0.0089,-0.0091,-0.0112,-0.0171,-0.0163,-0.0169,-0.0114,-0.0115,-0.0116,-0.0189,0,0.0005,0.0023,0.0028,0.0047,0.0059,0.0067,0.0078,0.0084,0.0085,0.0088,0.0057,0.0047,0.0021,0.0013,-0.0021,-0.0076,-0.011,-0.0075,-0.0176,-0.0178,-0.0166,-0.0175,-0.0118,-0.0194,-0.0195,-0.0196,-0.0197,0,0.001,0.0025,0.0042,0.007,0.0076,0.0087,0.0111,0.0121,0.0122,0.0121,0.0104,0.0086,0.0047,0.0026,-0.0067,-0.0043,-0.0101,-0.0147,-0.0151,-0.0161,-0.0181,-0.0198,-0.0207,-0.0207,-0.0206,-0.0205,-0.0204,0,0.0014,0.0038,0.0055,0.0063,0.0089,0.0102,0.0119,0.0131,0.0154,0.0145,0.0156,0.0104,0.0087,0.0008,-0.0076,-0.0073,-0.0182,-0.0194,-0.0245,-0.0245,-0.0247,-0.0246,-0.0263,-0.0263,-0.0263,-0.0263,-0.0263,0,0.0021,0.0037,0.0062,0.0072,0.0106,0.0117,0.015,0.0161,0.0184,0.0214,0.0176,0.0183,0.0083,0.0018,-0.007,-0.0171,-0.0181,-0.0242,-0.0264,-0.0229,-0.0225,-0.0251,-0.0249,-0.0266,-0.0265,-0.0265,-0.0264,0,0.0021,0.0035,0.0061,0.0093,0.0108,0.0133,0.0187,0.0214,0.0229,0.0266,0.0271,0.0238,0.0154,0.0046,-0.0087,-0.0155,-0.026,-0.0297,-0.0248,-0.0267,-0.0303,-0.0298,-0.0358,-0.0359,-0.0359,-0.0359,-0.0359,0,0.0021,0.0033,0.0075,0.0102,0.0119,0.0161,0.0196,0.0232,0.0274,0.0304,0.0329,0.0269,0.0228,0.0054,-0.0075,-0.025,-0.0273,-0.0331,-0.0317,-0.0298,-0.0313,-0.0307,-0.0302,-0.036,-0.036,-0.036,-0.036,0,0.0022,0.0035,0.0057,0.0126,0.0167,0.0214,0.0274,0.0308,0.0357,0.0367,0.0391,0.0314,0.0215,0.0074,-0.0066,-0.0191,-0.0294,-0.0334,-0.0334,-0.0322,-0.03,-0.0314,-0.0309,-0.0361,-0.0361,-0.0361,-0.0361,0,0.0022,0.0046,0.0094,0.0159,0.0209,0.0273,0.0288,0.0349,0.0394,0.0436,0.0436,0.0337,0.0282,0.0103,-0.0024,-0.0148,-0.0178,-0.0214,-0.0221,-0.0222,-0.0161,-0.0111,-0.0133,0,0,0,0,0,0.0028,0.0079,0.0136,0.0215,0.0263,0.0304,0.0356,0.0371,0.041,0.0441,0.0452,0.0369,0.0202,0.0128,0.0008,-0.0055,-0.0222,-0.0203,-0.0273,-0.0367,-0.0366,-0.0317,0,0,0,0,0,0,0.0044,0.0091,0.0147,0.0257,0.0313,0.0381,0.0405,0.042,0.0446,0.0461,0.0376,0.0349,0.018,0.0283,0.0014,-0.0025,-0.0086,-0.0279,-0.0282,-0.0368,-0.0366,-0.0366,-0.0315,0,0,0,0,0]}]]